Time,TemperatureF,DewpointF,PressureIn,WindDirection,WindDirectionDegrees,WindSpeedMPH,WindSpeedGustMPH,Humidity,HourlyPrecipIn,Conditions,Clouds,dailyrainin,SoftwareType,DateUTC
2013-03-31 00:00:00,43.8,42.2,29.94,SW,221,0.0,0.0,94,0.00,,,0.00,Wunderground v.1.15,2013-03-31 05:00:00,
2013-03-31 00:05:00,43.8,42.2,29.94,SW,221,0.0,0.0,94,0.00,,,0.00,Wunderground v.1.15,2013-03-31 05:05:00,
2013-03-31 00:15:00,44.0,42.4,29.93,NNW,330,1.0,1.0,94,0.00,,,0.00,Wunderground v.1.15,2013-03-31 05:15:00,
2013-03-31 00:20:00,44.0,42.4,29.93,NNW,330,1.0,1.0,94,0.00,,,0.00,Wunderground v.1.15,2013-03-31 05:20:00,
2013-03-31 00:25:00,44.1,42.5,29.93,NNW,331,0.0,1.0,94,0.00,,,0.00,Wunderground v.1.15,2013-03-31 05:25:00,
2013-03-31 00:30:00,44.1,42.5,29.93,NNW,331,0.0,0.0,94,0.00,,,0.00,Wunderground v.1.15,2013-03-31 05:30:00,
2013-03-31 00:35:00,44.0,42.4,29.93,NNW,330,0.0,0.0,94,0.00,,,0.00,Wunderground v.1.15,2013-03-31 05:35:00,
2013-03-31 00:45:00,44.0,42.4,29.93,NNW,330,0.0,0.0,94,0.00,,,0.00,Wunderground v.1.15,2013-03-31 05:45:00,
2013-03-31 00:50:00,44.0,42.4,29.93,NNW,330,0.0,0.0,94,0.00,,,0.00,Wunderground v.1.15,2013-03-31 05:50:00,
2013-03-31 00:55:00,44.0,42.4,29.93,NNW,330,0.0,0.0,94,0.00,,,0.00,Wunderground v.1.15,2013-03-31 05:55:00,
2013-03-31 01:00:00,44.0,42.4,29.93,NNW,330,0.0,0.0,94,0.00,,,0.00,Wunderground v.1.15,2013-03-31 06:00:00,
2013-03-31 01:05:00,43.9,42.3,29.93,West,269,0.0,0.0,94,0.00,,,0.00,Wunderground v.1.15,2013-03-31 06:05:00,
2013-03-31 01:15:00,43.9,42.3,29.93,West,279,0.0,0.0,94,0.00,,,0.00,Wunderground v.1.15,2013-03-31 06:15:00,
2013-03-31 01:20:00,43.9,42.3,29.92,NW,318,1.0,1.0,94,0.00,,,0.00,Wunderground v.1.15,2013-03-31 06:20:00,
2013-03-31 01:25:00,44.0,42.4,29.92,NW,305,1.0,1.0,94,0.00,,,0.00,Wunderground v.1.15,2013-03-31 06:25:00,
2013-03-31 01:35:00,44.0,42.4,29.92,NW,304,0.0,1.0,94,0.00,,,0.00,Wunderground v.1.15,2013-03-31 06:35:00,
2013-03-31 01:40:00,43.9,42.3,29.92,NNW,331,1.0,4.0,94,0.00,,,0.00,Wunderground v.1.15,2013-03-31 06:40:00,
2013-03-31 01:45:00,43.8,42.2,29.92,West,272,2.0,4.0,94,0.00,,,0.00,Wunderground v.1.15,2013-03-31 06:45:00,
2013-03-31 01:50:00,43.8,41.9,29.92,WNW,284,2.0,2.0,93,0.00,,,0.00,Wunderground v.1.15,2013-03-31 06:50:00,
2013-03-31 02:00:00,43.8,41.6,29.92,West,281,3.0,3.0,92,0.00,,,0.00,Wunderground v.1.15,2013-03-31 07:00:00,
2013-03-31 02:05:00,43.8,41.3,29.92,NNW,335,3.0,3.0,91,0.00,,,0.00,Wunderground v.1.15,2013-03-31 07:05:00,
2013-03-31 02:15:00,43.8,41.3,29.92,NW,321,2.0,3.0,91,0.00,,,0.00,Wunderground v.1.15,2013-03-31 07:15:00,
2013-03-31 02:20:00,43.8,41.3,29.92,NNW,345,1.0,3.0,91,0.00,,,0.00,Wunderground v.1.15,2013-03-31 07:20:00,
2013-03-31 02:25:00,43.8,41.3,29.92,NNW,338,1.0,3.0,91,0.00,,,0.00,Wunderground v.1.15,2013-03-31 07:25:00,
2013-03-31 02:30:00,43.8,41.3,29.92,NNW,331,1.0,1.0,91,0.00,,,0.00,Wunderground v.1.15,2013-03-31 07:30:00,
2013-03-31 02:35:00,43.7,41.0,29.92,NNW,331,1.0,3.0,90,0.00,,,0.00,Wunderground v.1.15,2013-03-31 07:35:00,
2013-03-31 02:40:00,43.6,40.9,29.91,NW,322,2.0,2.0,90,0.00,,,0.00,Wunderground v.1.15,2013-03-31 07:40:00,
2013-03-31 02:50:00,43.1,40.4,29.91,NNW,329,3.0,3.0,90,0.00,,,0.00,Wunderground v.1.15,2013-03-31 07:50:00,
2013-03-31 02:55:00,42.7,40.0,29.91,NNW,330,3.0,3.0,90,0.00,,,0.00,Wunderground v.1.15,2013-03-31 07:55:00,
2013-03-31 03:00:00,42.3,39.3,29.91,NNW,346,3.0,3.0,89,0.00,,,0.00,Wunderground v.1.15,2013-03-31 08:00:00,
2013-03-31 03:05:00,41.7,38.7,29.92,NNW,342,2.0,3.0,89,0.00,,,0.00,Wunderground v.1.15,2013-03-31 08:05:00,
2013-03-31 03:15:00,41.1,38.1,29.91,NNW,336,2.0,4.0,89,0.00,,,0.00,Wunderground v.1.15,2013-03-31 08:15:00,
2013-03-31 03:20:00,40.9,38.2,29.91,NNW,336,1.0,1.0,90,0.00,,,0.00,Wunderground v.1.15,2013-03-31 08:20:00,
2013-03-31 03:25:00,40.6,37.6,29.91,NNW,336,1.0,1.0,89,0.00,,,0.00,Wunderground v.1.15,2013-03-31 08:25:00,
2013-03-31 03:35:00,40.0,37.3,29.91,NNW,336,0.0,0.0,90,0.00,,,0.00,Wunderground v.1.15,2013-03-31 08:35:00,
2013-03-31 03:40:00,39.7,37.0,29.91,NNW,336,0.0,0.0,90,0.00,,,0.00,Wunderground v.1.15,2013-03-31 08:40:00,
2013-03-31 03:45:00,39.4,36.7,29.91,NNW,336,0.0,0.0,90,0.00,,,0.00,Wunderground v.1.15,2013-03-31 08:45:00,
2013-03-31 03:55:00,38.9,36.2,29.91,NNW,336,0.0,1.0,90,0.00,,,0.00,Wunderground v.1.15,2013-03-31 08:55:00,
2013-03-31 04:00:00,38.8,36.4,29.91,NNW,336,0.0,0.0,91,0.00,,,0.00,Wunderground v.1.15,2013-03-31 09:00:00,
2013-03-31 04:05:00,38.7,36.3,29.91,NNW,336,0.0,0.0,91,0.00,,,0.00,Wunderground v.1.15,2013-03-31 09:05:00,
2013-03-31 04:15:00,38.2,35.8,29.90,NNW,336,0.0,0.0,91,0.00,,,0.00,Wunderground v.1.15,2013-03-31 09:15:00,
2013-03-31 04:20:00,37.8,35.4,29.90,NNW,336,0.0,0.0,91,0.00,,,0.00,Wunderground v.1.15,2013-03-31 09:20:00,
2013-03-31 04:25:00,37.3,34.9,29.90,NNW,336,0.0,0.0,91,0.00,,,0.00,Wunderground v.1.15,2013-03-31 09:25:00,
2013-03-31 04:30:00,36.9,34.5,29.90,NNW,336,0.0,0.0,91,0.00,,,0.00,Wunderground v.1.15,2013-03-31 09:30:00,
2013-03-31 04:35:00,36.5,34.1,29.90,NNW,336,0.0,0.0,91,0.00,,,0.00,Wunderground v.1.15,2013-03-31 09:35:00,
2013-03-31 04:40:00,36.1,33.7,29.90,NNW,336,0.0,0.0,91,0.00,,,0.00,Wunderground v.1.15,2013-03-31 09:40:00,
2013-03-31 04:45:00,35.8,33.4,29.90,NNW,336,0.0,0.0,91,0.00,,,0.00,Wunderground v.1.15,2013-03-31 09:45:00,
2013-03-31 04:55:00,35.4,33.0,29.90,NNW,336,0.0,0.0,91,0.00,,,0.00,Wunderground v.1.15,2013-03-31 09:55:00,
2013-03-31 05:00:00,35.3,33.2,29.90,NNW,336,0.0,0.0,92,0.00,,,0.00,Wunderground v.1.15,2013-03-31 10:00:00,
2013-03-31 05:05:00,35.5,33.4,29.90,NNW,336,0.0,0.0,92,0.00,,,0.00,Wunderground v.1.15,2013-03-31 10:05:00,
2013-03-31 05:15:00,36.8,35.0,29.91,NNW,336,0.0,0.0,93,0.00,,,0.00,Wunderground v.1.15,2013-03-31 10:15:00,
2013-03-31 05:20:00,37.3,35.5,29.91,NNW,336,0.0,0.0,93,0.00,,,0.00,Wunderground v.1.15,2013-03-31 10:20:00,
2013-03-31 05:25:00,38.1,36.5,29.91,NW,304,1.0,1.0,94,0.00,,,0.00,Wunderground v.1.15,2013-03-31 10:25:00,
2013-03-31 05:30:00,38.4,36.8,29.91,WNW,292,1.0,2.0,94,0.00,,,0.00,Wunderground v.1.15,2013-03-31 10:30:00,
2013-03-31 05:35:00,38.7,37.1,29.91,WNW,292,0.0,2.0,94,0.00,,,0.00,Wunderground v.1.15,2013-03-31 10:35:00,
2013-03-31 05:40:00,38.8,37.2,29.91,WNW,292,0.0,0.0,94,0.00,,,0.00,Wunderground v.1.15,2013-03-31 10:40:00,
2013-03-31 05:50:00,38.9,37.3,29.90,WNW,292,0.0,0.0,94,0.00,,,0.00,Wunderground v.1.15,2013-03-31 10:50:00,
2013-03-31 05:55:00,39.0,37.4,29.90,WNW,292,0.0,0.0,94,0.00,,,0.00,Wunderground v.1.15,2013-03-31 10:55:00,
2013-03-31 06:00:00,39.1,37.5,29.91,WSW,252,0.0,0.0,94,0.00,,,0.00,Wunderground v.1.15,2013-03-31 11:00:00,
2013-03-31 06:05:00,39.2,37.6,29.90,WSW,250,0.0,1.0,94,0.00,,,0.00,Wunderground v.1.15,2013-03-31 11:05:00,
2013-03-31 06:15:00,39.3,37.7,29.90,West,263,0.0,1.0,94,0.00,,,0.00,Wunderground v.1.15,2013-03-31 11:15:00,
2013-03-31 06:20:00,39.4,37.8,29.90,NW,315,0.0,4.0,94,0.00,,,0.00,Wunderground v.1.15,2013-03-31 11:20:00,
2013-03-31 06:25:00,39.5,37.9,29.90,NNW,330,1.0,4.0,94,0.00,,,0.00,Wunderground v.1.15,2013-03-31 11:25:00,
2013-03-31 06:30:00,39.5,37.6,29.90,NNW,327,1.0,1.0,93,0.00,,,0.00,Wunderground v.1.15,2013-03-31 11:30:00,
2013-03-31 06:35:00,39.5,37.9,29.90,NNW,327,0.0,1.0,94,0.00,,,0.00,Wunderground v.1.15,2013-03-31 11:35:00,
2013-03-31 06:40:00,39.5,37.6,29.90,NNW,327,0.0,0.0,93,0.00,,,0.00,Wunderground v.1.15,2013-03-31 11:40:00,
2013-03-31 06:50:00,39.5,37.6,29.90,NNW,327,1.0,1.0,93,0.00,,,0.00,Wunderground v.1.15,2013-03-31 11:50:00,
2013-03-31 06:55:00,39.4,37.5,29.90,NW,306,0.0,1.0,93,0.00,,,0.00,Wunderground v.1.15,2013-03-31 11:55:00,
2013-03-31 07:00:00,39.4,37.5,29.90,WNW,302,1.0,1.0,93,0.00,,,0.00,Wunderground v.1.15,2013-03-31 12:00:00,
2013-03-31 07:05:00,39.4,37.5,29.90,WSW,258,1.0,1.0,93,0.00,,,0.00,Wunderground v.1.15,2013-03-31 12:05:00,
2013-03-31 07:15:00,39.3,37.4,29.90,West,260,1.0,1.0,93,0.00,,,0.00,Wunderground v.1.15,2013-03-31 12:15:00,
2013-03-31 07:20:00,39.3,37.4,29.90,West,260,0.0,0.0,93,0.00,,,0.00,Wunderground v.1.15,2013-03-31 12:20:00,
2013-03-31 07:25:00,39.3,37.4,29.90,West,262,0.0,2.0,93,0.00,,,0.00,Wunderground v.1.15,2013-03-31 12:25:00,
2013-03-31 07:30:00,39.3,37.4,29.90,West,263,0.0,0.0,93,0.00,,,0.00,Wunderground v.1.15,2013-03-31 12:30:00,
2013-03-31 07:35:00,39.2,37.3,29.90,West,273,0.0,0.0,93,0.00,,,0.00,Wunderground v.1.15,2013-03-31 12:35:00,
2013-03-31 07:40:00,39.3,37.4,29.90,West,273,0.0,0.0,93,0.00,,,0.00,Wunderground v.1.15,2013-03-31 12:40:00,
2013-03-31 07:45:00,39.3,37.4,29.89,West,272,0.0,0.0,93,0.00,,,0.00,Wunderground v.1.15,2013-03-31 12:45:00,
2013-03-31 07:55:00,39.4,37.5,29.90,NW,315,1.0,1.0,93,0.00,,,0.00,Wunderground v.1.15,2013-03-31 12:55:00,
2013-03-31 08:00:00,39.4,37.5,29.90,NW,316,1.0,1.0,93,0.00,,,0.00,Wunderground v.1.15,2013-03-31 13:00:00,
2013-03-31 08:05:00,39.6,37.7,29.90,NW,316,0.0,1.0,93,0.00,,,0.00,Wunderground v.1.15,2013-03-31 13:05:00,
2013-03-31 08:15:00,40.0,38.1,29.90,NW,316,0.0,8.0,93,0.00,,,0.00,Wunderground v.1.15,2013-03-31 13:15:00,
2013-03-31 08:20:00,40.0,38.1,29.89,WSW,256,1.0,1.0,93,0.00,,,0.00,Wunderground v.1.15,2013-03-31 13:20:00,
2013-03-31 08:30:00,40.7,38.8,29.89,West,269,1.0,1.0,93,0.00,,,0.00,Wunderground v.1.15,2013-03-31 13:30:00,
2013-03-31 08:35:00,41.0,39.1,29.89,West,259,1.0,5.0,93,0.00,,,0.00,Wunderground v.1.15,2013-03-31 13:35:00,
2013-03-31 08:40:00,41.1,39.0,29.89,West,261,1.0,1.0,92,0.00,,,0.00,Wunderground v.1.15,2013-03-31 13:40:00,
2013-03-31 08:50:00,41.5,39.1,29.89,West,259,1.0,5.0,91,0.00,,,0.00,Wunderground v.1.15,2013-03-31 13:50:00,
2013-03-31 08:55:00,41.5,39.1,29.89,WSW,250,2.0,5.0,91,0.00,,,0.00,Wunderground v.1.15,2013-03-31 13:55:00,
2013-03-31 09:00:00,41.6,38.9,29.89,WSW,256,3.0,3.0,90,0.00,,,0.00,Wunderground v.1.15,2013-03-31 14:00:00,
2013-03-31 09:05:00,41.8,39.1,29.89,SW,230,3.0,3.0,90,0.00,,,0.00,Wunderground v.1.15,2013-03-31 14:05:00,
2013-03-31 09:15:00,42.3,39.0,29.89,SW,214,3.0,3.0,88,0.00,,,0.00,Wunderground v.1.15,2013-03-31 14:15:00,
2013-03-31 09:25:00,42.5,38.9,29.89,SW,221,3.0,7.0,87,0.00,,,0.00,Wunderground v.1.15,2013-03-31 14:25:00,
2013-03-31 09:30:00,42.7,38.8,29.88,West,267,3.0,9.0,86,0.00,,,0.00,Wunderground v.1.15,2013-03-31 14:30:00,
2013-03-31 09:35:00,42.8,38.9,29.88,SSW,206,3.0,9.0,86,0.00,,,0.00,Wunderground v.1.15,2013-03-31 14:35:00,
2013-03-31 09:40:00,42.7,38.5,29.88,West,265,3.0,5.0,85,0.00,,,0.00,Wunderground v.1.15,2013-03-31 14:40:00,
2013-03-31 09:45:00,42.7,38.5,29.88,SSW,206,3.0,5.0,85,0.00,,,0.00,Wunderground v.1.15,2013-03-31 14:45:00,
2013-03-31 09:55:00,43.3,38.8,29.88,SW,215,2.0,3.0,84,0.00,,,0.00,Wunderground v.1.15,2013-03-31 14:55:00,
2013-03-31 10:00:00,43.7,38.6,29.88,West,271,2.0,3.0,82,0.00,,,0.00,Wunderground v.1.15,2013-03-31 15:00:00,
2013-03-31 10:05:00,44.1,38.6,29.88,West,263,2.0,5.0,81,0.00,,,0.00,Wunderground v.1.15,2013-03-31 15:05:00,
2013-03-31 10:15:00,44.5,38.4,29.88,WSW,253,3.0,3.0,79,0.00,,,0.00,Wunderground v.1.15,2013-03-31 15:15:00,
2013-03-31 10:20:00,45.0,38.9,29.88,WSW,237,3.0,3.0,79,0.00,,,0.00,Wunderground v.1.15,2013-03-31 15:20:00,
2013-03-31 10:25:00,45.2,38.4,29.88,WSW,252,3.0,3.0,77,0.00,,,0.00,Wunderground v.1.15,2013-03-31 15:25:00,
2013-03-31 10:30:00,46.0,38.5,29.88,NW,321,3.0,3.0,75,0.00,,,0.00,Wunderground v.1.15,2013-03-31 15:30:00,
2013-03-31 10:40:00,47.8,39.2,29.88,NW,313,2.0,4.0,72,0.00,,,0.00,Wunderground v.1.15,2013-03-31 15:40:00,
2013-03-31 10:45:00,48.1,38.8,29.88,NW,309,4.0,7.0,70,0.00,,,0.00,Wunderground v.1.15,2013-03-31 15:45:00,
2013-03-31 10:50:00,48.0,39.0,29.89,West,276,6.0,7.0,71,0.00,,,0.00,Wunderground v.1.15,2013-03-31 15:50:00,
2013-03-31 11:00:00,49.2,40.2,29.88,West,261,3.0,3.0,71,0.00,,,0.00,Wunderground v.1.15,2013-03-31 16:00:00,
2013-03-31 11:05:00,50.1,39.9,29.88,WSW,251,4.0,9.0,68,0.00,,,0.00,Wunderground v.1.15,2013-03-31 16:05:00,
2013-03-31 11:15:00,50.6,40.0,29.88,WNW,290,5.0,5.0,67,0.00,,,0.00,Wunderground v.1.15,2013-03-31 16:15:00,
2013-03-31 11:20:00,51.3,40.7,29.88,WNW,298,5.0,5.0,67,0.00,,,0.00,Wunderground v.1.15,2013-03-31 16:20:00,
2013-03-31 11:25:00,52.1,41.1,29.87,NW,304,4.0,5.0,66,0.00,,,0.00,Wunderground v.1.15,2013-03-31 16:25:00,
2013-03-31 11:30:00,52.5,40.7,29.88,West,268,5.0,9.0,64,0.00,,,0.00,Wunderground v.1.15,2013-03-31 16:30:00,
2013-03-31 11:35:00,52.3,40.9,29.88,WNW,288,6.0,9.0,65,0.00,,,0.00,Wunderground v.1.15,2013-03-31 16:35:00,
2013-03-31 11:40:00,53.1,41.2,29.87,NW,304,4.0,4.0,64,0.00,,,0.00,Wunderground v.1.15,2013-03-31 16:40:00,
2013-03-31 11:45:00,53.2,40.9,29.87,West,281,4.0,4.0,63,0.00,,,0.00,Wunderground v.1.15,2013-03-31 16:45:00,
2013-03-31 11:55:00,53.5,39.9,29.86,WNW,300,5.0,5.0,60,0.00,,,0.00,Wunderground v.1.15,2013-03-31 16:55:00,
2013-03-31 12:00:00,53.8,39.8,29.86,NNW,344,6.0,13.0,59,0.00,,,0.00,Wunderground v.1.15,2013-03-31 17:00:00,
2013-03-31 12:05:00,54.0,39.1,29.86,NNW,332,6.0,13.0,57,0.00,,,0.00,Wunderground v.1.15,2013-03-31 17:05:00,
2013-03-31 12:15:00,54.9,38.6,29.86,WNW,284,6.0,7.0,54,0.00,,,0.00,Wunderground v.1.15,2013-03-31 17:15:00,
2013-03-31 12:20:00,54.3,38.0,29.86,WNW,290,7.0,7.0,54,0.00,,,0.00,Wunderground v.1.15,2013-03-31 17:20:00,
2013-03-31 12:25:00,55.1,38.7,29.86,NW,311,7.0,7.0,54,0.00,,,0.00,Wunderground v.1.15,2013-03-31 17:25:00,
2013-03-31 12:30:00,54.7,38.8,29.87,WNW,297,6.0,9.0,55,0.00,,,0.00,Wunderground v.1.15,2013-03-31 17:30:00,
2013-03-31 12:35:00,54.5,39.1,29.87,NNW,338,7.0,9.0,56,0.00,,,0.00,Wunderground v.1.15,2013-03-31 17:35:00,
2013-03-31 12:45:00,53.8,38.9,29.87,NW,309,7.0,10.0,57,0.00,,,0.00,Wunderground v.1.15,2013-03-31 17:45:00,
2013-03-31 12:50:00,54.0,38.6,29.87,NW,312,6.0,6.0,56,0.00,,,0.00,Wunderground v.1.15,2013-03-31 17:50:00,
2013-03-31 13:00:00,52.9,37.6,29.87,NW,324,7.0,7.0,56,0.00,,,0.00,Wunderground v.1.15,2013-03-31 18:00:00,
2013-03-31 13:05:00,52.6,37.8,29.87,NW,322,7.0,8.0,57,0.00,,,0.00,Wunderground v.1.15,2013-03-31 18:05:00,
2013-03-31 13:15:00,52.6,37.3,29.87,NW,311,8.0,8.0,56,0.00,,,0.00,Wunderground v.1.15,2013-03-31 18:15:00,
2013-03-31 13:20:00,52.1,37.3,29.87,WNW,286,8.0,9.0,57,0.00,,,0.00,Wunderground v.1.15,2013-03-31 18:20:00,
2013-03-31 13:25:00,51.8,37.5,29.87,NW,322,9.0,15.0,58,0.00,,,0.00,Wunderground v.1.15,2013-03-31 18:25:00,
2013-03-31 13:30:00,52.3,38.8,29.87,WNW,301,9.0,9.0,60,0.00,,,0.00,Wunderground v.1.15,2013-03-31 18:30:00,
2013-03-31 13:40:00,52.3,36.1,29.87,NNW,337,8.0,14.0,54,0.00,,,0.01,Wunderground v.1.15,2013-03-31 18:40:00,
2013-03-31 13:45:00,52.2,36.5,29.87,NNW,342,10.0,14.0,55,0.00,,,0.01,Wunderground v.1.15,2013-03-31 18:45:00,
2013-03-31 13:50:00,52.1,36.4,29.87,NW,307,9.0,9.0,55,0.00,,,0.01,Wunderground v.1.15,2013-03-31 18:50:00,
2013-03-31 13:55:00,52.4,36.7,29.87,NW,321,8.0,12.0,55,0.00,,,0.01,Wunderground v.1.15,2013-03-31 18:55:00,
2013-03-31 14:00:00,51.9,35.3,29.87,WNW,292,9.0,10.0,53,0.00,,,0.01,Wunderground v.1.15,2013-03-31 19:00:00,
2013-03-31 14:05:00,51.7,34.6,29.88,West,268,9.0,10.0,52,0.00,,,0.01,Wunderground v.1.15,2013-03-31 19:05:00,
2013-03-31 14:15:00,51.7,35.6,29.88,West,263,8.0,14.0,54,0.00,,,0.01,Wunderground v.1.15,2013-03-31 19:15:00,
2013-03-31 14:20:00,51.8,34.7,29.89,WNW,286,7.0,7.0,52,0.00,,,0.01,Wunderground v.1.15,2013-03-31 19:20:00,
2013-03-31 14:25:00,50.4,33.4,29.89,WNW,298,9.0,9.0,52,0.00,,,0.01,Wunderground v.1.15,2013-03-31 19:25:00,
2013-03-31 14:30:00,49.8,34.3,29.89,WNW,302,10.0,10.0,55,0.00,,,0.01,Wunderground v.1.15,2013-03-31 19:30:00,
2013-03-31 14:35:00,49.5,34.9,29.89,WSW,253,9.0,10.0,57,0.00,,,0.01,Wunderground v.1.15,2013-03-31 19:35:00,
2013-03-31 14:45:00,50.1,35.4,29.89,North,349,7.0,14.0,57,0.00,,,0.01,Wunderground v.1.15,2013-03-31 19:45:00,
2013-03-31 14:50:00,49.7,34.2,29.89,West,275,8.0,8.0,55,0.00,,,0.01,Wunderground v.1.15,2013-03-31 19:50:00,
2013-03-31 14:55:00,49.7,33.7,29.89,NW,326,10.0,10.0,54,0.00,,,0.01,Wunderground v.1.15,2013-03-31 19:55:00,
2013-03-31 15:00:00,49.6,34.1,29.89,NW,316,9.0,9.0,55,0.00,,,0.01,Wunderground v.1.15,2013-03-31 20:00:00,
2013-03-31 15:05:00,49.9,34.4,29.89,NW,309,8.0,9.0,55,0.00,,,0.01,Wunderground v.1.15,2013-03-31 20:05:00,
2013-03-31 15:15:00,50.7,34.2,29.89,West,263,7.0,9.0,53,0.00,,,0.01,Wunderground v.1.15,2013-03-31 20:15:00,
2013-03-31 15:20:00,50.8,34.7,29.89,NW,315,7.0,7.0,54,0.00,,,0.01,Wunderground v.1.15,2013-03-31 20:20:00,
2013-03-31 15:25:00,50.0,33.5,29.89,North,349,8.0,9.0,53,0.00,,,0.01,Wunderground v.1.15,2013-03-31 20:25:00,
2013-03-31 15:30:00,49.8,34.7,29.89,NNW,327,8.0,8.0,56,0.00,,,0.01,Wunderground v.1.15,2013-03-31 20:30:00,
2013-03-31 15:35:00,50.2,34.6,29.89,NW,318,7.0,8.0,55,0.00,,,0.01,Wunderground v.1.15,2013-03-31 20:35:00,
2013-03-31 15:40:00,49.6,33.6,29.88,NNW,346,7.0,15.0,54,0.00,,,0.01,Wunderground v.1.15,2013-03-31 20:40:00,
2013-03-31 15:50:00,49.6,33.6,29.89,NW,318,8.0,12.0,54,0.00,,,0.01,Wunderground v.1.15,2013-03-31 20:50:00,
2013-03-31 16:00:00,49.2,32.3,29.89,West,277,10.0,10.0,52,0.00,,,0.01,Wunderground v.1.15,2013-03-31 21:00:00,
2013-03-31 16:05:00,49.9,32.0,29.88,NNW,333,9.0,10.0,50,0.00,,,0.01,Wunderground v.1.15,2013-03-31 21:05:00,
2013-03-31 16:15:00,49.8,31.4,29.88,WNW,285,9.0,9.0,49,0.00,,,0.01,Wunderground v.1.15,2013-03-31 21:15:00,
2013-03-31 16:20:00,49.6,29.6,29.88,NNW,333,9.0,9.0,46,0.00,,,0.01,Wunderground v.1.15,2013-03-31 21:20:00,
2013-03-31 16:30:00,49.6,31.7,29.89,WNW,287,9.0,10.0,50,0.00,,,0.01,Wunderground v.1.15,2013-03-31 21:30:00,
2013-03-31 16:35:00,49.8,32.4,29.89,WNW,288,9.0,10.0,51,0.00,,,0.01,Wunderground v.1.15,2013-03-31 21:35:00,
2013-03-31 16:40:00,49.8,31.9,29.89,NW,306,8.0,8.0,50,0.00,,,0.01,Wunderground v.1.15,2013-03-31 21:40:00,
2013-03-31 16:45:00,49.7,31.3,29.89,NW,324,7.0,8.0,49,0.00,,,0.01,Wunderground v.1.15,2013-03-31 21:45:00,
2013-03-31 16:50:00,48.2,34.1,29.90,WNW,300,9.0,9.0,58,0.00,,,0.01,Wunderground v.1.15,2013-03-31 21:50:00,
2013-03-31 17:00:00,47.5,33.9,29.91,WSW,257,8.0,10.0,59,0.00,,,0.01,Wunderground v.1.15,2013-03-31 22:00:00,
2013-03-31 17:05:00,46.7,32.7,29.91,NW,319,10.0,10.0,58,0.00,,,0.01,Wunderground v.1.15,2013-03-31 22:05:00,
2013-03-31 17:15:00,45.6,32.1,29.91,NW,311,9.0,10.0,59,0.00,,,0.01,Wunderground v.1.15,2013-03-31 22:15:00,
2013-03-31 17:20:00,45.0,31.1,29.91,WNW,294,9.0,9.0,58,0.00,,,0.01,Wunderground v.1.15,2013-03-31 22:20:00,
2013-03-31 17:30:00,44.7,30.4,29.92,North,360,6.0,8.0,57,0.00,,,0.01,Wunderground v.1.15,2013-03-31 22:30:00,
2013-03-31 17:40:00,43.5,30.1,29.92,NW,320,8.0,13.0,59,0.00,,,0.01,Wunderground v.1.15,2013-03-31 22:40:00,
2013-03-31 17:45:00,43.2,29.8,29.92,NW,315,8.0,13.0,59,0.00,,,0.01,Wunderground v.1.15,2013-03-31 22:45:00,
2013-03-31 17:50:00,43.3,29.9,29.93,WNW,301,9.0,9.0,59,0.00,,,0.01,Wunderground v.1.15,2013-03-31 22:50:00,
2013-03-31 17:55:00,42.8,29.9,29.93,NNW,344,9.0,11.0,60,0.00,,,0.01,Wunderground v.1.15,2013-03-31 22:55:00,
2013-03-31 18:05:00,42.6,29.7,29.93,North,350,8.0,10.0,60,0.00,,,0.01,Wunderground v.1.15,2013-03-31 23:05:00,
2013-03-31 18:15:00,42.1,29.2,29.94,NNW,332,8.0,8.0,60,0.00,,,0.01,Wunderground v.1.15,2013-03-31 23:15:00,
2013-03-31 18:20:00,41.4,28.9,29.94,WNW,303,8.0,8.0,61,0.00,,,0.01,Wunderground v.1.15,2013-03-31 23:20:00,
2013-03-31 18:25:00,41.1,29.1,29.93,NW,316,6.0,8.0,62,0.00,,,0.01,Wunderground v.1.15,2013-03-31 23:25:00,
2013-03-31 18:30:00,41.1,28.7,29.94,WNW,285,7.0,7.0,61,0.00,,,0.01,Wunderground v.1.15,2013-03-31 23:30:00,
2013-03-31 18:35:00,41.2,28.4,29.94,WNW,288,7.0,10.0,60,0.00,,,0.01,Wunderground v.1.15,2013-03-31 23:35:00,
2013-03-31 18:45:00,40.8,27.6,29.94,WNW,295,8.0,9.0,59,0.00,,,0.01,Wunderground v.1.15,2013-03-31 23:45:00,
2013-03-31 18:50:00,40.5,27.7,29.95,West,281,7.0,7.0,60,0.00,,,0.01,Wunderground v.1.15,2013-03-31 23:50:00,
2013-03-31 18:55:00,40.4,28.0,29.95,NNW,336,6.0,7.0,61,0.00,,,0.01,Wunderground v.1.15,2013-03-31 23:55:00,
2013-03-31 19:05:00,40.0,27.6,29.95,NNW,334,6.0,7.0,61,0.00,,,0.01,Wunderground v.1.15,2013-04-01 00:05:00,
2013-03-31 19:15:00,39.7,27.3,29.95,NW,313,5.0,5.0,61,0.00,,,0.01,Wunderground v.1.15,2013-04-01 00:15:00,
2013-03-31 19:20:00,39.5,27.5,29.95,NW,309,5.0,5.0,62,0.00,,,0.01,Wunderground v.1.15,2013-04-01 00:20:00,
2013-03-31 19:25:00,39.3,27.4,29.95,NW,307,5.0,5.0,62,0.00,,,0.01,Wunderground v.1.15,2013-04-01 00:25:00,
2013-03-31 19:35:00,38.9,27.0,29.96,NNW,344,4.0,4.0,62,0.00,,,0.01,Wunderground v.1.15,2013-04-01 00:35:00,
2013-03-31 19:40:00,38.7,26.8,29.96,WNW,302,3.0,7.0,62,0.00,,,0.01,Wunderground v.1.15,2013-04-01 00:40:00,
2013-03-31 19:45:00,38.7,26.0,29.96,NW,311,5.0,7.0,60,0.00,,,0.01,Wunderground v.1.15,2013-04-01 00:45:00,
2013-03-31 19:55:00,38.5,26.2,29.97,NNW,341,5.0,7.0,61,0.00,,,0.01,Wunderground v.1.15,2013-04-01 00:55:00,
2013-03-31 20:00:00,38.3,26.0,29.97,NW,319,5.0,5.0,61,0.00,,,0.01,Wunderground v.1.15,2013-04-01 01:00:00,
2013-03-31 20:05:00,38.3,26.0,29.97,North,350,4.0,5.0,61,0.00,,,0.01,Wunderground v.1.15,2013-04-01 01:05:00,
2013-03-31 20:15:00,38.0,26.1,29.97,NNW,338,3.0,4.0,62,0.00,,,0.01,Wunderground v.1.15,2013-04-01 01:15:00,
2013-03-31 20:20:00,37.8,25.9,29.98,WNW,302,3.0,4.0,62,0.00,,,0.01,Wunderground v.1.15,2013-04-01 01:20:00,
2013-03-31 20:25:00,37.7,26.2,29.98,WNW,299,3.0,4.0,63,0.00,,,0.01,Wunderground v.1.15,2013-04-01 01:25:00,
2013-03-31 20:35:00,37.5,26.0,29.98,NNW,327,4.0,10.0,63,0.00,,,0.01,Wunderground v.1.15,2013-04-01 01:35:00,
2013-03-31 20:40:00,37.5,26.0,29.99,NW,313,5.0,5.0,63,0.00,,,0.01,Wunderground v.1.15,2013-04-01 01:40:00,
2013-03-31 20:45:00,37.2,26.1,29.98,NW,323,3.0,5.0,64,0.00,,,0.01,Wunderground v.1.15,2013-04-01 01:45:00,
2013-03-31 20:50:00,37.1,26.0,29.98,NNW,338,3.0,3.0,64,0.00,,,0.01,Wunderground v.1.15,2013-04-01 01:50:00,
2013-03-31 20:55:00,36.9,26.2,29.99,NW,309,3.0,4.0,65,0.00,,,0.01,Wunderground v.1.15,2013-04-01 01:55:00,
2013-03-31 21:05:00,36.7,26.0,29.99,NNW,327,5.0,6.0,65,0.00,,,0.01,Wunderground v.1.15,2013-04-01 02:05:00,
2013-03-31 21:15:00,36.4,25.4,29.99,NW,321,5.0,5.0,64,0.00,,,0.01,Wunderground v.1.15,2013-04-01 02:15:00,
2013-03-31 21:20:00,36.2,25.2,30.00,NNW,327,5.0,5.0,64,0.00,,,0.01,Wunderground v.1.15,2013-04-01 02:20:00,
2013-03-31 21:25:00,36.2,24.8,30.00,NW,322,5.0,7.0,63,0.00,,,0.01,Wunderground v.1.15,2013-04-01 02:25:00,
2013-03-31 21:30:00,36.0,25.0,30.00,NNW,329,4.0,4.0,64,0.00,,,0.01,Wunderground v.1.15,2013-04-01 02:30:00,
2013-03-31 21:35:00,35.7,24.7,30.00,NNW,333,4.0,4.0,64,0.00,,,0.01,Wunderground v.1.15,2013-04-01 02:35:00,
2013-03-31 21:45:00,35.4,24.8,30.00,NW,308,4.0,4.0,65,0.00,,,0.01,Wunderground v.1.15,2013-04-01 02:45:00,
2013-03-31 21:50:00,35.3,24.7,30.01,NW,321,5.0,8.0,65,0.00,,,0.01,Wunderground v.1.15,2013-04-01 02:50:00,
2013-03-31 21:55:00,35.3,24.7,30.01,NW,309,5.0,8.0,65,0.00,,,0.01,Wunderground v.1.15,2013-04-01 02:55:00,
2013-03-31 22:00:00,35.2,24.6,30.01,NNW,343,6.0,6.0,65,0.00,,,0.01,Wunderground v.1.15,2013-04-01 03:00:00,
2013-03-31 22:05:00,35.1,24.5,30.01,NW,324,5.0,8.0,65,0.00,,,0.01,Wunderground v.1.15,2013-04-01 03:05:00,
2013-03-31 22:15:00,34.5,24.3,30.02,NW,313,4.0,5.0,66,0.00,,,0.01,Wunderground v.1.15,2013-04-01 03:15:00,
2013-03-31 22:25:00,34.4,24.6,30.02,NNW,331,5.0,5.0,67,0.00,,,0.01,Wunderground v.1.15,2013-04-01 03:25:00,
2013-03-31 22:30:00,34.3,24.5,30.02,NW,316,6.0,8.0,67,0.00,,,0.01,Wunderground v.1.15,2013-04-01 03:30:00,
2013-03-31 22:35:00,34.4,24.6,30.03,NW,322,7.0,8.0,67,0.00,,,0.01,Wunderground v.1.15,2013-04-01 03:35:00,
2013-03-31 22:40:00,34.2,24.4,30.03,NW,326,7.0,7.0,67,0.00,,,0.01,Wunderground v.1.15,2013-04-01 03:40:00,
2013-03-31 22:50:00,34.2,24.4,30.03,NNW,333,8.0,8.0,67,0.00,,,0.01,Wunderground v.1.15,2013-04-01 03:50:00,
2013-03-31 22:55:00,34.0,24.2,30.03,NNW,335,7.0,9.0,67,0.00,,,0.01,Wunderground v.1.15,2013-04-01 03:55:00,
2013-03-31 23:00:00,33.9,24.1,30.03,NW,325,7.0,8.0,67,0.00,,,0.01,Wunderground v.1.15,2013-04-01 04:00:00,
2013-03-31 23:05:00,33.8,24.0,30.04,NW,307,7.0,8.0,67,0.00,,,0.01,Wunderground v.1.15,2013-04-01 04:05:00,
2013-03-31 23:10:00,33.6,24.2,30.03,NW,324,7.0,7.0,68,0.00,,,0.01,Wunderground v.1.15,2013-04-01 04:10:00,
2013-03-31 23:15:00,33.5,24.1,30.03,WNW,302,6.0,7.0,68,0.00,,,0.01,Wunderground v.1.15,2013-04-01 04:15:00,
2013-03-31 23:25:00,33.3,23.9,30.04,NNW,344,6.0,9.0,68,0.00,,,0.01,Wunderground v.1.15,2013-04-01 04:25:00,
2013-03-31 23:30:00,33.2,24.1,30.04,NW,318,5.0,6.0,69,0.00,,,0.01,Wunderground v.1.15,2013-04-01 04:30:00,
2013-03-31 23:35:00,33.0,23.9,30.04,NNW,333,5.0,6.0,69,0.00,,,0.01,Wunderground v.1.15,2013-04-01 04:35:00,
2013-03-31 23:40:00,32.8,23.7,30.04,NNW,327,5.0,5.0,69,0.00,,,0.01,Wunderground v.1.15,2013-04-01 04:40:00,
2013-03-31 23:50:00,32.6,23.6,30.04,NW,309,6.0,6.0,69,0.00,,,0.01,Wunderground v.1.15,2013-04-01 04:50:00,
2013-03-31 23:55:00,32.5,23.5,30.05,NNW,333,6.0,6.0,69,0.00,,,0.01,Wunderground v.1.15,2013-04-01 04:55:00,